Location: Clarion
(42.7316°N, 93.7330°W)
Time: 09:31:10
(UTC+00:00)

CZ-4B R/B - Pass Details

Date: 22 April 2026
Orbit: 808 x 880 km, 98.9° (Epoch: 17 May)

Event Time Altitude Azimuth Distance (km) Brightness Sun altitude
Exits shadow 01:43:20 - 130° (SE) 2,687 5.2 -7.5°
Reaches altitude 10° 01:43:51 10° 128° (SE) 2,507 5.0 -7.6°
Maximum altitude 01:48:47 33° 66° (ENE) 1,426 4.1 -8.4°
Drops below altitude 10° 01:53:47 10° 4° (N) 2,544 6.0 -9.3°
Sets 01:56:23 0° 355° (N) 3,489 6.9 -9.7°
